User: anonymous   Login
Location: Cz?stochówka
(50.8142°N, 19.0915°E)
Time: 09:10:45
(UTC+00:00)
Language:

COSMOS 2406 - Orbit

View from above orbital plane
View from above orbital plane
View from above satellite
View from above satellite

Ground track
Ground track

The orbit is defined by the following mean orbital elements,

1 28352U          26072.98265929 +.00000000 +00000-0 -81341-4 0 00002
2 28352  70.9995 298.4955 0012118 278.4468  81.5280 14.12143591    00
Epoch (UTC): 13 March 2026 23:35:01
Eccentricity: 0.0012118
inclination: 70.9995°
perigee height: 843 km
apogee height: 861 km
right ascension of ascending node: 298.4955°
argument of perigee: 278.4468°
revolutions per day: 14.12143591
mean anomaly at epoch: 81.5280°

The dashed part of the orbit path shows where the satellite is in the earth's shadow,  

DLR